Flag for India Weather past 2 weeks in Giridih, Jharkhand, India

Now
55 °F

Fog.


Feels Like: 55 °F
Forecast: 56 / 82 °F
Wind: 2 mph from North

Location: Lucknow / Amausi

Current Time: Mar 6, 2015 at 4:15:02 AM

Latest Report: Mar 6, 2015 at 3:00 AM


Visibility: 2 mi

Pressure: 29.98 "Hg

Humidity: 82%

Dew point: 50 °F

Location of GiridihLocation

Historic Weather in Giridih — Graph

°F

Giridih temperature yesterday

Maximum temperature yesterday: 77 °F (at 12:30 PM)
Minimum temperature yesterday: 52 °F (at 4:00 AM)
Average temperature yesterday: 66 °F

Past Weeks' High & Low Weather Summary

 TemperatureHumidityPressure
High88 °F (Feb 20, 2:00 PM)100% (Mar 1, 10:30 AM)30.04 "Hg (Mar 1, 10:30 AM)
Low52 °F (Mar 5, 4:00 AM)34% (Mar 5, 12:30 PM)29.71 "Hg (Feb 26, 4:00 AM)
Average71 °F72%29.90 "Hg
* Reported Feb 19 2:00 AM — Mar 6 2:00 AM, Giridih, Weather by CustomWeather, © 2015

Note: Actual official high and low records may vary slightly from our data, if they occured in-between our weather recording intervals... More about our weather records

Advertising

Giridih weather history for previous 24 hours

 ConditionsComfort  
Time TempWeatherWind HumidityBarometerVisibility
2:00 AM
Fri, Mar 6
57 °FFog.No wind82%29.98 "Hg2 mi
1:00 AM57 °FFog.No wind82%30.01 "Hg2 mi
12:00 AM59 °FFog.2 mph77%30.01 "Hg2 mi
11:00 PM
Thu, Mar 5
61 °FHaze.2 mph72%30.01 "Hg2 mi
9:00 PM64 °FHaze.2 mph68%30.01 "Hg2 mi
8:30 PM64 °FHaze.2 mph68%30.01 "Hg2 mi
8:00 PM66 °FHaze.2 mph64%29.98 "Hg2 mi
7:30 PM66 °FHaze.2 mph64%29.98 "Hg2 mi
6:30 PM70 °FClear.3 mph53%29.95 "Hg4 mi
6:00 PM72 °FClear.5 mph50%29.95 "Hg4 mi
5:30 PM73 °FClear.7 mph44%29.95 "Hg4 mi
5:00 PM75 °FClear.7 mph41%29.95 "Hg4 mi
4:30 PM75 °FClear.9 mph41%29.95 "Hg4 mi
4:00 PM77 °FClear.12 mph34%29.95 "Hg4 mi
3:30 PM77 °FClear.9 mph34%29.95 "Hg4 mi
3:00 PM77 °FClear.12 mph34%29.95 "Hg4 mi
2:30 PM77 °FClear.12 mph34%29.95 "Hg4 mi
1:30 PM77 °FHaze.12 mph34%29.98 "Hg3 mi
1:00 PM77 °FHaze.12 mph34%29.98 "Hg3 mi
12:30 PM77 °FHaze.12 mph34%30.01 "Hg3 mi
12:00 PM75 °FHaze.9 mph39%30.04 "Hg3 mi
11:30 AM73 °FHaze.9 mph47%30.04 "Hg3 mi
11:00 AM72 °FHaze.9 mph50%30.04 "Hg3 mi
10:00 AM70 °FHaze.3 mph57%30.04 "Hg3 mi
9:00 AM63 °FHaze.5 mph73%30.01 "Hg3 mi
8:30 AM59 °FHaze.2 mph77%30.01 "Hg2 mi
7:30 AM54 °FHaze.No wind82%29.98 "Hg2 mi
7:00 AM52 °FHaze.No wind88%29.98 "Hg2 mi
6:30 AM52 °FHaze.No wind88%29.98 "Hg2 mi
6:00 AM52 °FHaze.3 mph88%29.95 "Hg2 mi
5:30 AM52 °FHaze.3 mph88%29.95 "Hg2 mi
5:00 AM52 °FHaze.No wind82%29.95 "Hg2 mi
4:00 AM52 °FHaze.No wind82%29.95 "Hg2 mi
Weather by CustomWeather, © 2015

See weather overviewHow to use our weather pages